Regional Weather Roundup
Issued by NWS

Home | Current Version | Previous Version | Text Only | Print | Product List | Glossary Off
Versions: 1 2 3 4 5 6 7 8 9 10 11 12 13 14 15 16 17 18 19 20 21 22 23 24 25 26 27 28 29 30 31 32 33 34 35 36 37 38 39 40 41 42 43 44 45 46 47 48 49 50

478
ASUS43 KDMX 211101
RWRIA

WEATHER ROUNDUP FOR IOWA
NATIONAL WEATHER SERVICE DES MOINES IA
600 AM CDT FRI JUL 21 2017

NOTE: "FAIR" INDICATES FEW OR NO CLOUDS BELOW 12,000 FEET WITH NO
SIGNIFICANT WEATHER AND/OR OBSTRUCTIONS TO VISIBILITY.

* - THESE STATIONS ARE NOT NWS STATIONS...THUS NOT UNDER NWS
QUALITY CONTROL.  THEY ALSO DO NOT REPORT WEATHER SUCH
AS PRECIPITATION OR FOG.

IAZ001>003-012>014-020>022-031>034-043>046-211200-
   NORTHWEST IOWA

CITY           SKY/WX    TMP DP  RH WIND       PRES   REMARKS
CARROLL *      CLOUDY    73  73 100 S9        29.87F
CHEROKEE *     RAIN      73  70  91 CALM      29.89R
DENISON *      CLOUDY    79  72  78 S14G22    29.87F HX  82
ORANGE CITY *  RAIN      72  70  94 SE3       29.86F
SHELDON *      CLOUDY    72  68  88 S10       29.84F
SIOUX CITY     CLOUDY    75  73  93 E9        29.84F
SPENCER        MOCLDY    72  69  90 S8        29.86F
STORM LAKE *   PTCLDY    72  68  88 SE7       29.87S
$$

IAZ055>058-069>071-079>083-090>094-211200-
   SOUTHWEST IOWA

CITY           SKY/WX    TMP DP  RH WIND       PRES   REMARKS
ATLANTIC *     CLOUDY    79  75  89 N12       29.89R HX  82
AUDUBON *      HVY RAIN  75  70  83 W10G16    29.89F
CLARINDA *     CLOUDY    77  73  88 S5        29.91S
COUNCIL BLFS * CLOUDY    82  72  69 S10       29.86S HX  87
CRESTON *      CLOUDY    77  75  94 S9        29.93R
HARLAN  *      CLOUDY    77  75  94 SE3       29.92S
LAMONI         CLOUDY    78  76  93 S7        29.93S HX  81
RED OAK *      CLOUDY    77  73  88 S3        29.88R
SHENANDOAH *   CLEAR     77  73  88 S5        29.88S
$$

IAZ047>049-059>061-072>074-084-211200-
   CENTRAL IOWA

CITY           SKY/WX    TMP DP  RH WIND       PRES   REMARKS
AMES           PTCLDY    72  72 100 MISG      29.89F
ANKENY *       CLOUDY    73  72  94 S6        29.89F
BOONE *        CLOUDY    72  70  94 SE6       29.89F
CHARITON *     CLOUDY    79  75  89 S7        29.92S HX  82
DES MOINES     CLOUDY    77  72  84 SE8       29.89F
GRINNELL*      CLOUDY    72  69  91 S9        29.92F
KNOXVILLE *    CLOUDY    73  70  88 SE7       29.90F
MARSHALLTOWN   CLOUDY    71  71 100 E6        29.89F
NEWTON *       CLOUDY    73  72  94 S9        29.91F
PELLA *        PTCLDY    73  70  88 SE7       29.92F
$$

IAZ004>006-015-016-023>025-035-036-211200-
   NORTH CENTRAL IOWA

CITY           SKY/WX    TMP DP  RH WIND       PRES   REMARKS
ALGONA *       CLEAR     72  72 100 SE7       29.87F
CLARION *      PTCLDY    72  72 100 SE5       29.88F
ESTHERVILLE    PTCLDY    71  70  96 SE5       29.86S
FORT DODGE *   CLEAR     72  68  88 SE5       29.88F
MASON CITY     PTCLDY    71  70  96 SE6       29.90F
FOREST CITY *    N/A     72  72 100 SE6       29.88F
WEBSTER CITY * CLOUDY    72  68  88 SE7       29.86F
IOWA FALLS *     N/A     72  70  93 S3        29.90F
$$

IAZ007>011-017>019-026>030-037>042-050>054-066-211200-
   NORTHEAST IOWA

CITY           SKY/WX    TMP DP  RH WIND       PRES   REMARKS
CEDAR RAPIDS   MOCLDY    71  71 100 SE7       29.93F
CHARLES CITY * CLOUDY    72  72 100 E6        29.92S FOG
CLINTON *      CLOUDY    72  71  97 SE5       29.97S
DECORAH *      MOCLDY    68  66  94 VRB5      29.93F
DUBUQUE        CLOUDY    70  68  93 S9        29.97S
MONTICELLO *   CLOUDY    72  70  94 SE5       29.94S
OELWEIN *      CLOUDY    70  70 100 S13       29.96R FOG
WATERLOO       CLOUDY    72  68  87 SE14      29.91S
$$

IAZ064-065-067-068-078-211200-
   EAST CENTRAL IOWA

CITY           SKY/WX    TMP DP  RH WIND       PRES   REMARKS
DAVENPORT      CLOUDY    71  70  96 S3        29.99R
IOWA CITY      MOCLDY    74  71  91 VRB3      29.96R
MUSCATINE *    CLOUDY    73  72  94 E5        29.96R
QUAD CITIES    CLOUDY    72  69  90 SE3       29.96S
$$

IAZ062-063-075>077-085>089-095>099-211200-
   SOUTHEAST IOWA

CITY           SKY/WX    TMP DP  RH WIND       PRES   REMARKS
BURLINGTON     CLOUDY    76  71  85 CALM      29.96R
FAIRFIELD *    CLOUDY    73  70  88 SE7       29.94S
FORT MADISON * CLOUDY    75  72  88 SE3       29.97R
KEOKUK *       CLOUDY    77  73  88 SE9       29.96S
OSKALOOSA *      N/A     71  69  93 SE6       29.93S
OTTUMWA        PTCLDY    74  71  91 S8        29.93S
WASHINGTON *   MOCLDY    72  72 100 CALM      29.96S
$$

ABBREVIATIONS USED IN REMARKS
   TC - TEMPERATURES IN CELSIUS
  WCI - WIND CHILL INDEX
   HX - HEAT INDEX
  VSB - VISIBILITY
$$





USA.gov is the U.S. government's official web portal to all federal, state and local government web resources and services.